VK4ZPK-13 Weather Reports


Display with metric or nautical units.
time (UTC)temp
F
wind
direction
speed
MPH
gust
MPH
rain 1hr
in
rain 24hr
in
rain mn
in
humidity
%
barometer
mb
20260510021226 74 142 4.0 9.0 0.00 0.01 0.01 79 1021.1
20260510014226 72 148 3.0 6.0 0.00 0.01 0.01 83 1021.5
20260510011226 72 135 3.0 7.0 0.00 0.00 0.00 80 1022.0
20260510004226 70 162 3.0 7.0 0.00 0.00 0.00 83 1021.9
20260510001226 69 151 3.0 7.0 0.00 0.00 0.00 83 1022.0
20260509234226 70 167 4.0 8.0 0.00 0.00 0.00 84 1022.1
20260509231226 68 160 2.0 5.0 0.00 0.00 0.00 86 1022.0
20260509224226 68 172 3.0 8.0 0.00 0.00 0.00 86 1021.9
20260509221226 66 168 3.0 8.0 0.00 0.00 0.00 86 1021.5
20260509214226 64 169 3.0 5.0 0.00 0.00 0.00 90 1021.5
20260509211226 62 180 2.0 5.0 0.00 0.00 0.00 91 1021.1
20260509204226 61 177 2.0 4.0 0.00 0.00 0.00 91 1020.5
20260509201226 61 162 3.0 6.0 0.00 0.00 0.00 89 1020.0
20260509194226 60 177 2.0 4.0 0.00 0.00 0.00 88 1019.8
20260509191226 60 167 2.0 6.0 0.00 0.00 0.00 88 1019.3
20260509184226 60 188 1.0 4.0 0.00 0.00 0.00 88 1019.3
20260509181226 61 171 3.0 6.0 0.00 0.00 0.00 87 1019.1
20260509174226 61 171 2.0 4.0 0.00 0.00 0.00 87 1019.1
20260509171226 61 160 1.0 4.0 0.00 0.00 0.00 87 1019.1
20260509164226 61 180 1.0 4.0 0.00 0.00 0.00 87 1019.4
20260509161226 61 181 1.0 3.0 0.00 0.00 0.00 86 1019.6
20260509154226 62 169 1.0 3.0 0.00 0.00 0.00 86 1019.7
20260509151226 62 169 2.0 3.0 0.00 0.00 0.00 86 1019.7
20260509144226 62 157 2.0 4.0 0.00 0.00 0.00 86 1019.9
20260509141226 62 163 2.0 4.0 0.00 0.00 0.00 86 1020.0
20260509134226 63 145 1.0 3.0 0.00 0.00 0.00 85 1020.4
20260509131226 63 162 1.0 3.0 0.00 0.00 0.00 84 1020.7
20260509124226 64 161 2.0 4.0 0.00 0.00 0.00 84 1020.6
20260509121226 64 167 2.0 5.0 0.00 0.00 0.00 83 1020.4
20260509114226 65 159 2.0 4.0 0.00 0.00 0.00 82 1020.4
20260509111226 65 152 1.0 4.0 0.00 0.00 0.00 81 1020.4
20260509104226 66 166 1.0 6.0 0.00 0.00 0.00 81 1020.3
20260509101226 67 159 1.0 3.0 0.00 0.00 0.00 80 1020.4
20260509094226 67 159 1.0 3.0 0.00 0.00 0.00 80 1020.2
20260509091226 68 141 1.0 3.0 0.00 0.00 0.00 79 1019.8
20260509084226 68 135 1.0 4.0 0.00 0.00 0.00 77 1019.2
20260509081226 69 138 1.0 4.0 0.00 0.00 0.00 76 1019.1
20260509074226 70 135 2.0 4.0 0.00 0.00 0.00 73 1018.7
20260509071226 71 117 1.0 4.0 0.00 0.00 0.00 69 1018.3
20260509064226 72 107 2.0 5.0 0.00 0.00 0.00 68 1018.0
20260509061226 73 121 3.0 6.0 0.00 0.00 0.00 63 1017.7
20260509054226 73 106 3.0 9.0 0.00 0.00 0.00 63 1017.7
20260509051226 74 116 3.0 6.0 0.00 0.00 0.00 64 1017.5
20260509044226 75 117 3.0 5.0 0.00 0.00 0.00 64 1017.3
20260509041226 75 117 3.0 8.0 0.00 0.00 0.00 61 1017.3
20260509034226 75 102 4.0 9.0 0.00 0.00 0.00 62 1017.4
20260509031226 75 99 4.0 10.0 0.00 0.00 0.00 62 1017.5
20260509024226 75 90 3.0 9.0 0.00 0.00 0.00 63 1017.8